Location: Boncourt
(49.6160°N, 3.9448°E)
Time: 22:40:19
(UTC+00:00)

ATLAS 5 CENTAUR R/B - Pass Details

Date: 09 February 2023
Orbit: 460 x 1178 km, 63.3° (Epoch: 24 March)

Event Time Altitude Azimuth Distance (km) Brightness Sun altitude
Rises 19:50:28 0° 318° (NW) 2,966 5.8 -29.1°
Reaches altitude 10° 19:52:40 10° 325° (NW) 2,153 4.9 -29.4°
Enters shadow 19:55:39 34° 351° (N) 1,245 3.2 -29.9°
